Tracking 19485 objects as of 21-Jan-2019
HD Live streaming from Space Station
objects crossing your sky now

COSMOS 1994

Track COSMOS 1994 now!
10-day predictions
COSMOS 1994 is classified as:


NORAD ID: 19785
Int'l Code: 1989-009A
Perigee: 1,402.0 km
Apogee: 1,422.9 km
Inclination: 82.6 °
Period: 113.9 minutes
Semi major axis: 7783 km
RCS: 1.1816 m2 (large)
Launch date: February 10, 1989
Source: Commonwealth of Independent States (former USSR) (CIS)
Launch site: PLESETSK MISSILE AND SPACE COMPLEX (PKMTR)
aabbcc
Your satellite tracking list
Your tracking list is empty




NASA's NSSDC Master Catalog

Two Line Element Set (TLE):
1 19785U 89009A   19020.76857927 +.00000028 +00000-0 +96695-4 0  9998
2 19785 082.6208 273.8564 0013442 350.6072 071.9835 12.64278376381630
Source of the keplerian elements: AFSPC